#timestamp,LO_Frequency,Hit,StdDev 
1689872415.7,286046997.4,N
1689872435.5,286046997.4,N
1689872455.4,286046999.5,N
1689872475.2,286046996.9,N
1689872495.0,286046999.5,N
1689872496.0,286046999.5,N
1689872515.8,286046999.5,N
1689872535.6,286046999.5,N
1689872555.5,286046996.8,N
1689872575.3,286046997.1,N
1689872595.1,286046996.7,N
1689872615.9,286046997.5,N
1689872635.7,286046997.9,N
1689872655.6,286046997.8,N
1689872675.4,286046997.6,N
1689872695.2,286046997.8,N
1689872715.1,286046997.7,N
1689872716.0,286046997.7,N
1689872735.8,286046997.3,N
1689872755.6,286046997.3,N
1689872775.5,286046997.8,N
1689872795.3,286046995.4,Y
1689872815.2,286046999.0,P
1689872835.9,286046999.2,N
1689872855.7,286046998.9,N
1689872875.6,286046998.7,N
1689872895.4,286046998.1,Y
1689872915.3,286047000.5,P
1689872935.1,286047002.6,N
1689872936.0,286047002.6,N
1689872955.8,286046999.9,N
1689872975.7,286047000.3,N
1689872995.5,286047000.1,N
1689873015.3,286047002.6,N
1689873035.2,286047001.7,N
1689873055.0,286047001.8,N
1689873055.9,286047001.8,N
1689873075.8,286047002.4,N
1689873095.6,286047002.4,N
1689873115.4,286047002.7,N
1689873135.3,286047000.2,N
1689873155.1,286046998.7,N
1689873175.8,286046999.3,N
1689873195.7,286046998.8,N
1689873215.5,286046998.8,N
1689873235.4,286046998.3,N
1689873255.2,286046999.5,N
1689873275.1,286046998.1,N
1689873276.0,286046998.1,N
1689873295.8,286046998.5,N
1689873315.6,286047000.8,N
1689873335.5,286047000.4,N
1689873355.3,286047000.9,N
1689873375.1,286047000.5,N
1689873395.9,286047002.3,N
1689873415.7,286047000.2,N
1689873435.6,286047000.0,N
1689873455.4,286047000.1,N
1689873475.2,286047002.8,N
1689873495.1,286046999.8,N
1689873496.0,286046999.8,N
1689873515.8,286047002.7,N
1689873535.6,286047000.4,N
1689873555.5,286047000.0,N
1689873575.3,286047000.2,N
1689873595.2,286047000.1,N
1689873615.9,286047002.3,N
1689873635.7,286046999.8,N
1689873655.6,286047000.2,N
1689873675.4,286046999.7,N
1689873695.2,286047000.1,N
1689873715.1,286046999.7,N
1689873716.0,286046999.7,N
1689873735.8,286047000.5,N
1689873755.7,286047002.7,N
1689873775.5,286047002.0,N
1689873795.3,286046999.8,N
1689873815.2,286047000.4,N
1689873835.0,286047000.4,N
1689873835.9,286047000.4,N
1689873855.7,286047000.4,N
1689873875.6,286047000.3,N
1689873895.4,286047000.1,N
1689873915.3,286047000.1,N
1689873935.1,286047000.1,N
1689873936.0,286047000.1,N
1689873955.8,286047000.4,N
1689873975.7,286047002.6,N
1689873995.5,286047000.2,N
1689874015.3,286047000.2,N
1689874035.2,286047002.0,N
1689874055.0,286047001.3,N
1689874055.9,286047001.3,N
1689874075.8,286047004.2,Y
1689874095.6,286047001.9,P
1689874115.4,286047001.8,N
1689874135.3,286047001.8,N
1689874155.1,286047002.7,Y
1689874175.9,286047000.6,P
1689874195.7,286047000.7,N
1689874215.5,286047000.6,N
1689874235.4,286046998.2,Y
1689874255.2,286046999.1,P
1689874275.0,286046999.6,N
1689874275.9,286046999.6,N
1689874295.8,286046996.6,Y
1689874315.6,286046999.0,P
1689874335.5,286046999.3,N
1689874355.3,286046996.9,P
1689874375.1,286046997.4,N
1689874395.9,286046999.3,N
1689874415.7,286046998.9,N
1689874435.6,286046998.9,N
1689874455.4,286046999.3,N
1689874475.2,286046998.3,N
1689874495.1,286047001.2,N
1689874496.0,286047001.2,N
1689874515.8,286047000.3,N
1689874535.6,286047000.9,N
1689874555.5,286047000.2,N
1689874575.3,286047000.5,N
1689874595.1,286047001.0,N
1689874615.9,286046998.5,N
1689874635.7,286047000.0,N
1689874655.6,286047000.1,N
1689874675.4,286047000.5,N
1689874695.2,286047000.7,N
1689874715.1,286046998.2,N
1689874716.0,286046998.2,N
1689874735.8,286047000.9,N
1689874755.7,286047001.1,N
1689874775.5,286047000.7,N
1689874795.3,286046998.6,N
1689874815.2,286046998.3,N
1689874835.9,286046996.5,N
1689874855.7,286046999.3,N
1689874875.6,286046998.4,N
1689874895.4,286046998.6,N
1689874915.2,286046998.8,N
1689874935.1,286046996.5,N
1689874936.0,286046996.5,N
1689874955.8,286046999.6,N
1689874975.7,286046999.0,N
1689874995.5,286046997.3,N
1689875015.3,286046995.5,Y
1689875035.2,286046994.9,P
1689875055.0,286046993.4,N
1689875055.9,286046993.4,N
1689875075.8,286046994.2,N
1689875095.6,286046992.1,Y
1689875115.4,286046996.5,P
1689875135.3,286046999.6,N
1689875155.1,286046999.6,N
1689875175.8,286046995.3,N
1689875195.7,286046999.2,N
1689875215.5,286047000.0,N
1689875235.4,286047001.7,N
1689875255.2,286046999.8,N
1689875275.0,286047002.1,N
1689875275.9,286047002.1,N
1689875295.8,286047004.4,N
1689875315.6,286047001.3,N
1689875335.4,286047003.6,N
1689875355.3,286047003.1,N
1689875375.1,286047003.0,N
1689875395.9,286047006.0,N
1689875415.7,286047005.6,N
1689875435.5,286047003.4,N
1689875455.4,286047003.8,N
1689875475.2,286047001.7,N
1689875495.0,286047002.0,N
1689875495.9,286047002.0,N
1689875515.8,286046999.8,N
1689875535.6,286047000.9,N
1689875555.5,286046999.7,N
1689875575.3,286047002.2,N
1689875595.1,286047002.7,N
1689875615.9,286047002.0,N
1689875635.7,286047000.3,N
1689875655.5,286047000.1,N
1689875675.4,286047002.4,N
1689875695.2,286047000.6,N
1689875715.1,286046998.6,N
1689875716.0,286046998.6,N
1689875735.8,286046998.7,N
1689875755.6,286046998.4,N
1689875775.5,286046998.9,N
1689875795.3,286046999.3,N
1689875815.1,286046998.9,N
1689875835.9,286046998.2,N
1689875855.7,286046998.3,N
1689875875.6,286047001.2,N
1689875895.4,286046998.4,N
1689875915.2,286047001.2,N
1689875935.1,286046998.1,N
1689875936.0,286046998.1,N
1689875955.8,286046998.6,N
1689875975.7,286046999.7,N
1689875995.5,286046999.8,N
